SWR805 EDDS-LOWS

Flight info

Callsign SWR805
Flight time 0h 35m
Altitude 23000
Route ABTAL4H ABTAL L173 RIXED Y161 RIDAR Z98 WLD T702 BADIT BADIT2R
Aircraft RJ1H/M-SDFGIRWY/LB1

Departure

Time 2026-05-05 08:03
Airport Stuttgart Airport (EDDS)

Arrival

Time 2026-05-05 08:38
Airport Salzburg Airport (LOWS)
Time Latitude Longitude Altitude Speed Heading
2026-05-05 06:55 48.68924 9.20085 1297 ft 0 kts 164°
2026-05-05 07:33 48.68925 9.20085 1297 ft 0 kts 164°
2026-05-05 07:57 48.68923 9.20086 1297 ft 1 kts 164°
2026-05-05 07:58 48.68893 9.20098 1295 ft 7 kts 164°
2026-05-05 07:58 48.68850 9.20085 1293 ft 5 kts 257°
2026-05-05 07:58 48.68842 9.20050 1294 ft 2 kts 251°
2026-05-05 07:58 48.68838 9.20033 1294 ft 2 kts 251°
2026-05-05 07:59 48.68824 9.19995 1295 ft 7 kts 229°
2026-05-05 07:59 48.68767 9.19969 1293 ft 10 kts 166°
2026-05-05 07:59 48.68725 9.20078 1288 ft 14 kts 115°
2026-05-05 07:59 48.68707 9.20160 1284 ft 0 kts 102°
2026-05-05 08:00 48.68707 9.20162 1284 ft 0 kts 102°
2026-05-05 08:01 48.68706 9.20170 1283 ft 3 kts 102°
2026-05-05 08:01 48.68695 9.20241 1280 ft 11 kts 104°
2026-05-05 08:01 48.68677 9.20376 1275 ft 15 kts 96°
2026-05-05 08:02 48.68673 9.20485 1273 ft 16 kts 90°
2026-05-05 08:02 48.68679 9.20567 1272 ft 0 kts 73°
2026-05-05 08:02 48.68682 9.20583 1271 ft 16 kts 73°
2026-05-05 08:02 48.68792 9.21165 1261 ft 96 kts 74°
2026-05-05 08:03 48.69040 9.22453 1303 ft 149 kts 73°
2026-05-05 08:03 48.69333 9.23970 1918 ft 152 kts 73°
2026-05-05 08:03 48.69616 9.25560 2595 ft 158 kts 74°
2026-05-05 08:03 48.69888 9.27120 3437 ft 149 kts 75°
2026-05-05 08:04 48.70160 9.28647 3817 ft 161 kts 76°
2026-05-05 08:04 48.70489 9.30374 4094 ft 175 kts 74°
2026-05-05 08:04 48.70855 9.32196 4383 ft 187 kts 74°
2026-05-05 08:04 48.71245 9.34154 4655 ft 197 kts 74°
2026-05-05 08:05 48.71664 9.36263 4828 ft 221 kts 75°
2026-05-05 08:05 48.72125 9.38582 5230 ft 239 kts 75°
2026-05-05 08:05 48.72616 9.41083 5613 ft 256 kts 75°
2026-05-05 08:05 48.73130 9.43733 6001 ft 269 kts 75°
2026-05-05 08:06 48.73650 9.46501 6481 ft 276 kts 75°
2026-05-05 08:06 48.74174 9.49319 7032 ft 279 kts 75°
2026-05-05 08:06 48.74698 9.52162 7527 ft 282 kts 75°
2026-05-05 08:06 48.75229 9.55037 8015 ft 284 kts 75°
2026-05-05 08:07 48.75761 9.57891 8542 ft 286 kts 75°
2026-05-05 08:07 48.76313 9.60797 9160 ft 289 kts 75°
2026-05-05 08:07 48.76859 9.63746 9838 ft 292 kts 76°
2026-05-05 08:07 48.77419 9.66744 10432 ft 298 kts 76°
2026-05-05 08:08 48.77994 9.69786 11106 ft 301 kts 76°
2026-05-05 08:08 48.78576 9.72856 11798 ft 305 kts 76°
2026-05-05 08:08 48.79154 9.75960 12504 ft 308 kts 76°
2026-05-05 08:08 48.79741 9.79134 12897 ft 319 kts 76°
2026-05-05 08:09 48.80351 9.82462 12934 ft 335 kts 77°
2026-05-05 08:09 48.80984 9.85926 13014 ft 346 kts 76°
2026-05-05 08:09 48.81626 9.89461 13292 ft 349 kts 77°
2026-05-05 08:09 48.82272 9.93017 13601 ft 350 kts 77°
2026-05-05 08:10 48.82923 9.96588 13879 ft 352 kts 77°
2026-05-05 08:10 48.83580 10.00178 14135 ft 354 kts 77°
2026-05-05 08:10 48.84240 10.03780 14400 ft 355 kts 77°
2026-05-05 08:10 48.84901 10.07397 14665 ft 356 kts 78°
2026-05-05 08:11 48.85241 10.11097 14884 ft 354 kts 91°
2026-05-05 08:11 48.85184 10.14836 15115 ft 355 kts 96°
2026-05-05 08:11 48.84982 10.18577 15392 ft 356 kts 99°
2026-05-05 08:11 48.84701 10.22314 15696 ft 357 kts 100°
2026-05-05 08:12 48.84376 10.26052 15979 ft 358 kts 101°
2026-05-05 08:12 48.84045 10.29800 16261 ft 359 kts 101°
2026-05-05 08:12 48.83713 10.33560 16545 ft 361 kts 101°
2026-05-05 08:12 48.83379 10.37345 16831 ft 362 kts 101°
2026-05-05 08:13 48.82847 10.41056 17081 ft 358 kts 116°
2026-05-05 08:13 48.81519 10.44195 17352 ft 354 kts 132°
2026-05-05 08:13 48.79915 10.47041 17617 ft 355 kts 134°
2026-05-05 08:13 48.78237 10.49791 17960 ft 356 kts 136°
2026-05-05 08:14 48.76510 10.52491 18263 ft 357 kts 137°
2026-05-05 08:14 48.74758 10.55183 18537 ft 360 kts 137°
2026-05-05 08:14 48.72999 10.57898 18835 ft 362 kts 136°
2026-05-05 08:14 48.71245 10.60649 19137 ft 364 kts 136°
2026-05-05 08:15 48.69486 10.63415 19437 ft 366 kts 136°
2026-05-05 08:15 48.67719 10.66203 19728 ft 368 kts 136°
2026-05-05 08:15 48.65944 10.69012 20028 ft 370 kts 136°
2026-05-05 08:15 48.64186 10.71796 20310 ft 372 kts 136°
2026-05-05 08:16 48.62396 10.74633 20595 ft 374 kts 136°
2026-05-05 08:16 48.60611 10.77503 20866 ft 376 kts 132°
2026-05-05 08:16 48.59326 10.80967 21093 ft 385 kts 109°
2026-05-05 08:16 48.58786 10.84956 21358 ft 390 kts 100°
2026-05-05 08:17 48.58515 10.89050 21620 ft 393 kts 96°
2026-05-05 08:17 48.58381 10.93183 21899 ft 395 kts 94°
2026-05-05 08:17 48.58296 10.97318 22159 ft 397 kts 94°
2026-05-05 08:17 48.58235 11.01498 22427 ft 399 kts 93°
2026-05-05 08:18 48.58168 11.05702 22678 ft 401 kts 94°
2026-05-05 08:18 48.58035 11.09975 22817 ft 401 kts 98°
2026-05-05 08:18 48.57595 11.14075 22851 ft 394 kts 105°
2026-05-05 08:18 48.56877 11.18061 22860 ft 395 kts 110°
2026-05-05 08:19 48.56014 11.21974 22862 ft 401 kts 111°
2026-05-05 08:19 48.55076 11.25945 22866 ft 401 kts 112°
2026-05-05 08:19 48.54118 11.29891 22866 ft 400 kts 112°
2026-05-05 08:19 48.53149 11.33826 22858 ft 400 kts 112°
2026-05-05 08:20 48.52182 11.37763 22863 ft 401 kts 112°
2026-05-05 08:20 48.51239 11.41731 22873 ft 402 kts 111°
2026-05-05 08:20 48.50378 11.45488 22874 ft 402 kts 111°
2026-05-05 08:20 48.49449 11.49469 22877 ft 402 kts 111°
2026-05-05 08:21 48.48510 11.53441 22881 ft 403 kts 112°
2026-05-05 08:21 48.47548 11.57405 22883 ft 403 kts 112°
2026-05-05 08:21 48.46584 11.61370 22887 ft 403 kts 112°
2026-05-05 08:21 48.45663 11.65175 22891 ft 403 kts 112°
2026-05-05 08:22 48.44706 11.69134 22887 ft 403 kts 112°
2026-05-05 08:22 48.43746 11.73103 22879 ft 403 kts 112°
2026-05-05 08:22 48.42785 11.77074 22888 ft 404 kts 112°
2026-05-05 08:22 48.41824 11.81051 22890 ft 404 kts 112°
2026-05-05 08:23 48.40861 11.85022 22891 ft 404 kts 112°
2026-05-05 08:23 48.39900 11.88994 22888 ft 404 kts 112°
2026-05-05 08:23 48.38989 11.92745 22885 ft 404 kts 112°
2026-05-05 08:23 48.38026 11.96716 22883 ft 404 kts 112°
2026-05-05 08:24 48.37061 12.00687 22880 ft 404 kts 112°
2026-05-05 08:24 48.36094 12.04655 22872 ft 403 kts 112°
2026-05-05 08:24 48.35101 12.08581 21809 ft 406 kts 113°
2026-05-05 08:24 48.34095 12.12574 20805 ft 409 kts 112°
2026-05-05 08:25 48.33131 12.16464 20048 ft 396 kts 112°
2026-05-05 08:25 48.32206 12.20269 19328 ft 380 kts 112°
2026-05-05 08:25 48.31311 12.23923 18312 ft 368 kts 112°
2026-05-05 08:25 48.30422 12.27537 17164 ft 370 kts 112°
2026-05-05 08:26 48.29535 12.31115 16269 ft 359 kts 112°
2026-05-05 08:26 48.28675 12.34579 15332 ft 350 kts 112°
2026-05-05 08:26 48.27861 12.37842 14387 ft 345 kts 112°
2026-05-05 08:26 48.27025 12.41194 13383 ft 341 kts 112°
2026-05-05 08:27 48.26215 12.44508 12377 ft 335 kts 111°
2026-05-05 08:27 48.25412 12.47754 11427 ft 329 kts 112°
2026-05-05 08:27 48.24615 12.50934 10512 ft 323 kts 112°
2026-05-05 08:27 48.23842 12.54046 10063 ft 309 kts 112°
2026-05-05 08:28 48.23127 12.56957 9907 ft 286 kts 112°
2026-05-05 08:28 48.22471 12.59634 9541 ft 276 kts 112°
2026-05-05 08:28 48.21805 12.62319 9204 ft 273 kts 113°
2026-05-05 08:28 48.21126 12.64971 8841 ft 272 kts 113°
2026-05-05 08:29 48.20460 12.67625 8471 ft 271 kts 113°
2026-05-05 08:29 48.19792 12.70259 8127 ft 270 kts 112°
2026-05-05 08:29 48.19137 12.72890 7778 ft 269 kts 113°
2026-05-05 08:30 48.17801 12.78105 7114 ft 267 kts 113°
2026-05-05 08:30 48.17142 12.80708 6800 ft 267 kts 113°
2026-05-05 08:30 48.16310 12.83126 6473 ft 262 kts 134°
2026-05-05 08:30 48.14778 12.84517 6189 ft 254 kts 166°
2026-05-05 08:31 48.13097 12.85105 6081 ft 245 kts 168°
2026-05-05 08:31 48.11436 12.85665 5836 ft 244 kts 169°
2026-05-05 08:31 48.09798 12.86144 5557 ft 243 kts 171°
2026-05-05 08:31 48.08105 12.86614 5226 ft 245 kts 170°
2026-05-05 08:32 48.06433 12.87110 5017 ft 244 kts 169°
2026-05-05 08:32 48.04821 12.87630 4980 ft 235 kts 168°
2026-05-05 08:32 48.03259 12.88172 4985 ft 226 kts 168°
2026-05-05 08:32 48.01756 12.88710 4978 ft 218 kts 168°
2026-05-05 08:33 48.00291 12.89199 4921 ft 213 kts 173°
2026-05-05 08:33 47.98827 12.89405 4743 ft 208 kts 178°
2026-05-05 08:33 47.97411 12.89496 4666 ft 202 kts 176°
2026-05-05 08:33 47.96066 12.89929 4667 ft 195 kts 164°
2026-05-05 08:34 47.94800 12.90580 4791 ft 192 kts 160°
2026-05-05 08:34 47.93532 12.91360 4284 ft 197 kts 158°
2026-05-05 08:34 47.92332 12.92139 3981 ft 180 kts 158°
2026-05-05 08:34 47.91223 12.92839 3733 ft 167 kts 158°
2026-05-05 08:35 47.90191 12.93496 3518 ft 156 kts 157°
2026-05-05 08:35 47.89244 12.94106 3327 ft 140 kts 157°
2026-05-05 08:35 47.88384 12.94657 3134 ft 131 kts 157°
2026-05-05 08:35 47.87553 12.95186 2961 ft 129 kts 156°
2026-05-05 08:36 47.86728 12.95710 2823 ft 130 kts 157°
2026-05-05 08:36 47.85892 12.96241 2636 ft 131 kts 156°
2026-05-05 08:36 47.85058 12.96773 2475 ft 130 kts 156°
2026-05-05 08:36 47.84231 12.97297 2301 ft 128 kts 157°
2026-05-05 08:37 47.83422 12.97802 2133 ft 125 kts 158°
2026-05-05 08:37 47.82619 12.98291 1949 ft 124 kts 157°
2026-05-05 08:37 47.81823 12.98799 1765 ft 124 kts 155°
2026-05-05 08:37 47.81042 12.99313 1594 ft 122 kts 156°
2026-05-05 08:38 47.80281 12.99791 1457 ft 116 kts 156°
2026-05-05 08:38 47.79599 13.00222 1423 ft 97 kts 157°
2026-05-05 08:38 47.79048 13.00572 1424 ft 77 kts 157°
2026-05-05 08:38 47.78669 13.00811 1420 ft 35 kts 157°
2026-05-05 08:39 47.78550 13.00787 1419 ft 16 kts 246°
2026-05-05 08:39 47.78531 13.00685 1419 ft 10 kts 275°
2026-05-05 08:39 47.78575 13.00607 1420 ft 11 kts 334°
2026-05-05 08:39 47.78650 13.00559 1419 ft 13 kts 337°
2026-05-05 08:40 47.78743 13.00500 1419 ft 16 kts 337°
2026-05-05 08:40 47.78856 13.00429 1419 ft 19 kts 337°
2026-05-05 08:40 47.78955 13.00321 1419 ft 14 kts 273°
2026-05-05 08:40 47.78955 13.00246 1419 ft 7 kts 270°
2026-05-05 08:41 47.78962 13.00164 1419 ft 9 kts 304°
2026-05-05 08:41 47.79023 13.00113 1420 ft 7 kts 339°
2026-05-05 08:41 47.79076 13.00080 1420 ft 9 kts 336°
2026-05-05 08:41 47.79127 13.00041 1420 ft 6 kts 311°
2026-05-05 08:42 47.79136 12.99988 1420 ft 5 kts 281°
2026-05-05 08:42 47.79142 12.99944 1420 ft 3 kts 281°
2026-05-05 08:42 47.79145 12.99924 1420 ft 1 kts 281°
2026-05-05 08:42 47.79146 12.99916 1420 ft 0 kts 281°